Wadena, MN

1:28 AM CDT on August 19, 2017 (GMT -0500)
Wadena Municipal

Weather History for KADC - October, 2011

Change the Weather History Date:

Saturday, October 8, 2011

  Actual Average Record
Temperature  
Mean Temperature 58 °F -  
Max Temperature 64 °F 56 °F 85 °F (1936)
Min Temperature 53 °F 34 °F 18 °F (1976)
Degree Days  
Heating Degree Days 6    
Growing Degree Days 8 (Base 50)    
Moisture  
Dew Point 48 °F    
Average Humidity 68    
Maximum Humidity 77    
Minimum Humidity 59    
Precipitation  
Precipitation 0.00 in - - ()
Sea Level Pressure  
Sea Level Pressure 29.98 in    
Wind  
Wind Speed 7 mph (SW)    
Max Wind Speed 12 mph    
Max Gust Speed -    
Visibility 10 miles    
Events Rain    
Averages and records for this station are not official NWS values.
T = Trace of Precipitation, MM = Missing Value Source: NWS Daily Summary

Daily Weather History Graph

Daily Weather History Graph

Search for Another Location

Airport or City:

Trip Planner

Search our weather history database for the weather conditions in past years. The results will help you decide how hot, cold, wet, or windy it might be!

Date:

Astronomy

Oct. 08, 2011 Rise Set
Actual Time 7:28 AM CDT 6:47 PM CDT
Civil Twilight 6:58 AM CDT 7:17 PM CDT
Nautical Twilight 6:23 AM CDT 7:52 PM CDT
Astronomical Twilight 5:48 AM CDT 8:27 PM CDT
Moon 5:05 PM CDT (10/8) 4:07 AM CDT (10/8)
Length of Visible Light 12h 19m
Length of Day
11h 19m
Waxing Gibbous, 90% of the Moon is Illuminated
Oct 8
Waxing Gibbous
Oct 11
Full
Oct 19
Last Quarter
Oct 26
New
Nov 2
First Quarter

Hourly Weather History & Observations

Time (CDT) Temp. Dew Point Humidity Pressure Visibility Wind Dir Wind Speed Gust Speed Precip Events Conditions
12:14 AM 62.6 °F 55.4 °F 77% 29.80 in 10.0 mi SSW 9.2 mph - N/A   Overcast
12:35 AM 62.6 °F 55.4 °F 77% 29.80 in 10.0 mi South 11.5 mph - N/A   Overcast
12:53 AM 64.4 °F 51.8 °F 64% 29.80 in 10.0 mi SSW 10.4 mph - N/A   Overcast
1:15 AM 62.6 °F 48.2 °F 59% 29.81 in 10.0 mi SSW 11.5 mph - N/A   Overcast
1:34 AM 62.6 °F 48.2 °F 59% 29.81 in 10.0 mi South 9.2 mph - N/A   Overcast
1:53 AM 60.8 °F 48.2 °F 63% 29.82 in 10.0 mi South 6.9 mph - N/A   Overcast
2:14 AM 60.8 °F 48.2 °F 63% 29.84 in 10.0 mi SSW 8.1 mph - N/A   Overcast
2:35 AM 60.8 °F 48.2 °F 63% 29.84 in 10.0 mi SSW 9.2 mph - N/A   Overcast
2:52 AM 60.8 °F 46.4 °F 59% 29.85 in 10.0 mi SSW 11.5 mph - N/A   Scattered Clouds
3:15 AM 59.0 °F 46.4 °F 63% 29.85 in 10.0 mi SSW 9.2 mph - N/A   Clear
3:35 AM 57.2 °F 46.4 °F 67% 29.86 in 10.0 mi SSW 6.9 mph - N/A   Clear
3:53 AM 59.0 °F 46.4 °F 63% 29.85 in 10.0 mi SW 5.8 mph - N/A   Clear
4:15 AM 57.2 °F 44.6 °F 63% 29.87 in 10.0 mi SSW 5.8 mph - N/A   Clear
4:35 AM 57.2 °F 44.6 °F 63% 29.87 in 10.0 mi South 5.8 mph - N/A   Clear
4:53 AM 55.4 °F 44.6 °F 67% 29.87 in 10.0 mi South 4.6 mph - N/A   Clear
5:15 AM 53.6 °F 46.4 °F 77% 29.88 in 10.0 mi South 6.9 mph - N/A   Clear
5:34 AM 53.6 °F 46.4 °F 77% 29.90 in 10.0 mi South 6.9 mph - N/A   Clear
5:53 AM 55.4 °F 48.2 °F 77% 29.91 in 10.0 mi SW 5.8 mph - N/A   Clear
6:15 AM 55.4 °F 48.2 °F 77% 29.92 in 10.0 mi SSW 9.2 mph - N/A   Clear
6:35 AM 55.4 °F 46.4 °F 72% 29.92 in 10.0 mi WSW 5.8 mph - N/A   Scattered Clouds
6:53 AM 55.4 °F 46.4 °F 72% 29.91 in 10.0 mi West 6.9 mph - N/A   Clear
7:15 AM 55.4 °F 44.6 °F 67% 29.92 in 10.0 mi WSW 9.2 mph - N/A   Clear
7:35 AM 55.4 °F 46.4 °F 72% 29.94 in 10.0 mi South 6.9 mph - N/A   Clear
7:52 AM 55.4 °F 44.6 °F 67% 29.94 in 10.0 mi SSW 5.8 mph - N/A   Clear
8:15 AM 55.4 °F 44.6 °F 67% 29.96 in 10.0 mi SSW 4.6 mph - N/A   Clear
8:34 AM 55.4 °F 44.6 °F 67% 29.97 in 10.0 mi South 6.9 mph - N/A   Clear
8:53 AM 55.4 °F 44.6 °F 67% 29.97 in 10.0 mi SW 4.6 mph - N/A   Clear
9:15 AM 55.4 °F 46.4 °F 72% 29.96 in 10.0 mi West 8.1 mph - N/A Rain Light Rain
9:34 AM 55.4 °F 46.4 °F 72% 29.97 in 10.0 mi SW 4.6 mph - N/A Rain Light Rain
9:53 AM 55.4 °F 46.4 °F 72% 29.96 in 10.0 mi WNW 3.5 mph - N/A   Clear
10:15 AM 55.4 °F 46.4 °F 72% 30.00 in 10.0 mi WSW 6.9 mph - N/A   Scattered Clouds
10:34 AM 55.4 °F 48.2 °F 77% 30.01 in 10.0 mi WSW 3.5 mph - N/A   Light Drizzle
10:53 AM 55.4 °F 48.2 °F 77% 30.02 in 10.0 mi WSW 5.8 mph - N/A Rain Light Rain
11:15 AM 55.4 °F 46.4 °F 72% 30.00 in 10.0 mi WSW 3.5 mph - N/A   Light Drizzle
11:34 AM 57.2 °F 48.2 °F 72% 30.02 in 10.0 mi South 4.6 mph - N/A   Clear
11:53 AM 57.2 °F 48.2 °F 72% 30.04 in 10.0 mi SSW 9.2 mph - N/A   Scattered Clouds
12:15 PM 57.2 °F 48.2 °F 72% 30.05 in 10.0 mi SW 9.2 mph - N/A   Mostly Cloudy
12:34 PM 57.2 °F 48.2 °F 72% 30.04 in 10.0 mi SSW 6.9 mph - N/A   Overcast
1:15 PM 57.2 °F 48.2 °F 72% 30.04 in 10.0 mi SSW 5.8 mph - N/A   Overcast
1:34 PM 59.0 °F 48.2 °F 67% 30.03 in 10.0 mi SW 4.6 mph - N/A   Overcast
1:53 PM 60.8 °F 48.2 °F 63% 30.04 in 10.0 mi West 4.6 mph - N/A   Scattered Clouds
2:15 PM 62.6 °F 48.2 °F 59% 30.04 in 10.0 mi West 4.6 mph - N/A   Scattered Clouds
2:35 PM 60.8 °F 48.2 °F 63% 30.03 in 10.0 mi WSW 4.6 mph - N/A   Scattered Clouds
2:52 PM 60.8 °F 48.2 °F 63% 30.03 in 10.0 mi WSW 3.5 mph - N/A   Mostly Cloudy
3:15 PM 62.6 °F 48.2 °F 59% 30.03 in 10.0 mi SW 6.9 mph - N/A   Overcast
3:34 PM 62.6 °F 48.2 °F 59% 30.04 in 10.0 mi WSW 5.8 mph - N/A   Overcast
3:52 PM 62.6 °F 48.2 °F 59% 30.04 in 10.0 mi SW 4.6 mph - N/A   Mostly Cloudy
4:15 PM 62.6 °F 48.2 °F 59% 30.04 in 10.0 mi SSW 4.6 mph - N/A   Overcast
4:34 PM 62.6 °F 48.2 °F 59% 30.04 in 10.0 mi SSW 4.6 mph - N/A   Overcast
4:53 PM 62.6 °F 48.2 °F 59% 30.05 in 10.0 mi West 5.8 mph - N/A   Overcast
5:15 PM 62.6 °F 48.2 °F 59% 30.04 in 10.0 mi West 3.5 mph - N/A   Overcast
5:35 PM 60.8 °F 48.2 °F 63% 30.05 in 10.0 mi West 4.6 mph - N/A   Overcast
5:53 PM 60.8 °F 48.2 °F 63% 30.06 in 10.0 mi West 4.6 mph - N/A   Overcast
6:14 PM 60.8 °F 50.0 °F 68% 30.07 in 10.0 mi Calm Calm - N/A   Overcast
6:35 PM 60.8 °F 48.2 °F 63% 30.07 in 10.0 mi Calm Calm - N/A   Overcast
7:15 PM 60.8 °F 48.2 °F 63% 30.09 in 10.0 mi Calm Calm - N/A   Overcast
7:35 PM 59.0 °F 48.2 °F 67% 30.09 in 10.0 mi West 3.5 mph - N/A   Overcast
7:53 PM 59.0 °F 48.2 °F 67% 30.10 in 10.0 mi Calm Calm - N/A   Overcast
8:15 PM 57.2 °F 50.0 °F 77% 30.10 in 10.0 mi Calm Calm - N/A   Overcast
8:34 PM 57.2 °F 48.2 °F 72% 30.10 in 10.0 mi Calm Calm - N/A   Overcast
8:53 PM 57.2 °F 48.2 °F 72% 30.11 in 10.0 mi WNW 3.5 mph - N/A Rain Rain
9:15 PM 57.2 °F 48.2 °F 72% 30.12 in 10.0 mi Calm Calm - N/A Rain Light Rain
9:34 PM 57.2 °F 50.0 °F 77% 30.12 in 10.0 mi Calm Calm - N/A   Light Drizzle
9:53 PM 57.2 °F 48.2 °F 72% 30.14 in 10.0 mi Calm Calm - N/A   Overcast
10:15 PM 57.2 °F 48.2 °F 72% 30.14 in 10.0 mi NW 4.6 mph - N/A   Overcast
10:35 PM 57.2 °F 48.2 °F 72% 30.15 in 10.0 mi WNW 4.6 mph - N/A   Overcast
10:53 PM 55.4 °F 48.2 °F 77% 30.15 in 10.0 mi NW 4.6 mph - N/A   Overcast
11:15 PM 55.4 °F 48.2 °F 77% 30.16 in 10.0 mi NW 4.6 mph - N/A   Scattered Clouds
11:34 PM 55.4 °F 46.4 °F 72% 30.16 in 10.0 mi NW 4.6 mph - N/A   Overcast
11:53 PM 53.6 °F 46.4 °F 77% 30.16 in 10.0 mi NW 3.5 mph - N/A   Mostly Cloudy